Regional Weather Roundup
Issued by NWS

Home | Current Version | Previous Version | Text Only | Print | Product List | Glossary On
Versions: 1 2 3 4 5 6 7 8 9 10 11 12 13 14 15 16 17 18 19 20 21 22 23 24 25 26 27 28 29 30 31 32 33 34 35 36 37 38 39 40 41 42 43 44 45 46 47 48 49 50
000
ASCA44 KEWX 051220
RWRMX

LATIN AMERICA AND CARIBBEAN REGIONAL WEATHER ROUNDUP
NATIONAL WEATHER SERVICE AUSTIN/SAN ANTONIO TX
700 AM CDT SAT SEP 05 2015

NOTE: "FAIR" INDICATED FEW OR NO CLOUDS BELOW 12,000 FEET WITH NO
SIGNIFICANT WEATHER AND/OR OBSTRUCTIONS TO VISIBILITY.

BAJA CALIFORNIA

CITY           SKY/WX    TMP DP  RH WIND       PRES   REMARKS
LA PAZ         PTCLDY    77  73  88 SW3       29.82
TIJUANA        MOCLDY    66  55  68 N6        29.91S

NORTHWESTERN MEXICO

CITY           SKY/WX    TMP DP  RH WIND       PRES   REMARKS
LOS MOCHIS     PTCLDY    84  73  70 CALM      29.80  HX  91

NORTHEASTERN MEXICO

CITY           SKY/WX    TMP DP  RH WIND       PRES   REMARKS
MATAMOROS      PTCLDY    79  77  94 CALM      29.95  FOG
MONCLOVA       PTCLDY    79  70  73 SW7       29.92
MONTERREY      CLOUDY    75  70  83 E6        29.93R
SALTILLO       CLEAR     70  64  83 CALM      30.13
CD. VICTORIA   CLEAR     77  72  83 S7        29.96

WESTERN MEXICO

CITY           SKY/WX    TMP DP  RH WIND       PRES   REMARKS
AGUASCALIENTES CLOUDY    59  57  94 N5        30.25
GUADALAJARA    MOCLDY    64  61  88 N3        30.16
MANZANILLO     PTCLDY    77  75  94 CALM      29.81
MAZATLAN       CLOUDY    73  72  94 E10       29.84S
P. VALLARTA    MOCLDY    73  73 100 NE5       29.86R
URUAPAN        PTCLDY    63  61  94 CALM      30.14
ZACATECAS      CLEAR     54  46  76 CALM      30.28R

CENTRAL MEXICO

CITY           SKY/WX    TMP DP  RH WIND       PRES   REMARKS
CUERNAVACA       N/A    N/A N/A N/A MISG        N/A
MEXICO CITY    PTCLDY    57  52  82 W5        30.32
MORELIA        PTCLDY    57  55  94 CALM      30.22  FOG
POZA RICA      MOCLDY    77  75  94 CALM      29.84
PUEBLA         MOCLDY    50  48  93 N7        30.32R WCI  47
QUERETARO      MOCLDY    61  57  88 S6        30.29R
S. LUIS POTOSI MOCLDY    61  59  94 CALM      30.24R
TAMPICO        PTCLDY    77  73  88 CALM      29.95R
TOLUCA         PTCLDY    45  45 100 CALM      30.35R FOG

SOUTHERN MEXICO

CITY           SKY/WX    TMP DP  RH WIND       PRES   REMARKS
ACAPULCO       MOCLDY    79  77  94 E3        29.83S
B. DE HUATULCO PTCLDY    75  57  53 CALM      29.93
OAXACA         MOCLDY    61  59  94 S2        30.21R
P. ESCONDIDO     N/A    N/A N/A N/A MISG        N/A
VERACRUZ       PTCLDY    75  73  94 CALM      29.91R
ZIHUATANEJO    PTCLDY    81  75  83 CALM      29.84

YUCATAN PENINSULA

CITY           SKY/WX    TMP DP  RH WIND       PRES   REMARKS
CAMPECHE       CLEAR     75  75 100 E6        29.92R
CANCUN         PTCLDY    75  75 100 CALM      29.97R
CHETUMAL       MOCLDY    82  75  78 NE5       29.95
CD. DEL CARMEN PTCLDY    81  75  83 SE5       29.92
COZUMEL        PTCLDY    70  70 100 CALM      29.97R
MERIDA         PTCLDY    75  73  94 E5        29.97R
MINATITLAN     MOCLDY    75  68  78 S7        29.86
TAPACHULA      MOCLDY    77  73  88 CALM      29.89R
TUX. GUTIERREZ MOCLDY    70  68  94 CALM      29.98S
VILLAHERMOSA   PTCLDY    73  72  94 CALM      29.93R

CENTRAL AMERICA

CITY           SKY/WX    TMP DP  RH WIND       PRES   REMARKS
BELIZE CITY    MOCLDY    82  75  78 CALM      29.93S
MANAGUA        MOSUNNY   75  70  83 CALM      29.86S

CARIBBEAN

CITY           SKY/WX    TMP DP  RH WIND       PRES   REMARKS
ARUBA          MOSUNNY   84  75  74 E15       29.89S HX  92
CURACAO        MOSUNNY   86  73  66 E14       29.94R HX  93
KINGSTON       MOSUNNY   81  70  69 NW7       29.92S
NASSAU         PTSUNNY   82  77  83 SW3       29.99R HX  91
SAN JUAN       MOSUNNY   82  75  78 CALM      29.99R
SANTO DOMINGO  MOSUNNY   82  75  78 NE5       29.97R
ST. CROIX      MOSUNNY   84  75  74 SE12      30.00R HX  92
ST. KITTS      MOSUNNY   84  77  79 E10       30.00R HX  94
ST. THOMAS     PTSUNNY   84  77  79 SE12      29.98  HX  94

$$




USA.gov is the U.S. government's official web portal to all federal, state and local government web resources and services.